Stations météo

Publicité
La Rochelle/Ile de Re, France (7316): Température de l'air & dewpoint: 09.11.2019 16:00:00 - 15.11.2019 16:00:00 (CET)La Rochelle/Ile de Re, France (7316): Vitesse du vent & gusts: 09.11.2019 16:00:00 - 15.11.2019 16:00:00 (CET)La Rochelle/Ile de Re, France (7316): Direction du vent: 09.11.2019 16:00:00 - 15.11.2019 16:00:00 (CET)La Rochelle/Ile de Re, France (7316): reduced air pressure: 09.11.2019 16:00:00 - 15.11.2019 16:00:00 (CET)La Rochelle/Ile de Re, France (7316): visibility: 09.11.2019 16:00:00 - 15.11.2019 16:00:00 (CET)La Rochelle/Ile de Re, France (7316): Ensoleillement: 09.11.2019 16:00:00 - 15.11.2019 16:00:00 (CET)La Rochelle/Ile de Re, France (7316): Quantités de précipitations: 09.11.2019 16:00:00 - 15.11.2019 16:00:00 (CET)
Date & Time tt [°C] td [°C] ff [km/h] ff [knt] fx [km/h] fx [knt] dd ppp [hPa] vv [km] sd [min] rr [mm]
15.11.2019 16:00:00 7,9 3,0 18 10 29 16 N 1002,6 48 29 0,0
15.11.2019 15:00:00 8,2 2,8 18 10 24 13 N 1002,4 29 57 0,0
15.11.2019 14:00:00 7,5 4,1 11 6 26 14 N 1002,1 13 8 0,0
15.11.2019 13:00:00 7,0 4,0 17 9 26 14 NNE 1002,3 20 34 0,0
15.11.2019 12:00:00 6,4 3,9 14 8 28 15 N 1002,3 12 12 0,0
15.11.2019 11:00:00 5,7 3,7 19 10 30 16 NNE 1002,3 17 17 0,0
15.11.2019 10:00:00 5,0 3,8 14 8 22 12 NNE 1001,8 12 0 0,0
15.11.2019 09:00:00 4,7 4,0 14 8 22 12 NNE 1001,3 7 0 0,0
15.11.2019 08:00:00 3,9 3,3 13 7 26 14 NNE 1000,4 6 0 0,0
15.11.2019 07:00:00 3,8 3,2 11 6 20 11 NNE 999,5 6 0 0,0
15.11.2019 06:00:00 2,3 1,7 8 4 16 9 NE 998,9 3,2 0 0,2
15.11.2019 05:00:00 2,7 2,0 13 7 21 11 ENE 998,4 8 0 0,0
15.11.2019 04:00:00 2,8 2,1 15 8 19 10 ENE 998,3 13 0 0,0
15.11.2019 03:00:00 3,0 2,1 14 7 22 12 E 998,3 12 0 0,0
15.11.2019 02:00:00 1,6 0,7 6 3 18 10 E 998,2 5 0 0,0
15.11.2019 01:00:00 2,9 1,7 5 3 10 5 N 998,3 13 0 0,0
15.11.2019 00:00:00 3,4 2,4 5 3 6 4 SSE 997,9 4,9 0 0,0
14.11.2019 23:00:00 3,9 3,0 4 2 8 4 SSE 998,0 8 0 0,0
14.11.2019 22:00:00 3,4 1,9 5 3 9 5 SE 997,9 6 0 0,0
14.11.2019 21:00:00 4,1 2,6 8 4 13 7 ENE 997,9 30 0 0,0
14.11.2019 20:00:00 4,3 2,3 6 3 8 5 ENE 997,9 32 0 0,0
14.11.2019 19:00:00 5,1 3,1 8 4 12 6 NNE 997,8 24 0 0,0
14.11.2019 18:00:00 6,4 4,2 8 4 11 6 NNE 997,5 43 0 0,0
14.11.2019 17:00:00 7,1 3,9 5 3 10 6 NE 996,6 16 24 0,0
14.11.2019 16:00:00 7,5 3,7 4 2 10 5 N 996,4 60 0 0,0
14.11.2019 15:00:00 7,7 3,7 9 5 17 9 NW 996,2 52 0 0,0
14.11.2019 14:00:00 8,1 3,2 3 2 11 6 S 996,5 60 0 0,0
14.11.2019 13:00:00 8,0 3,6 7 4 13 7 SE 996,6 44 0 0,0
14.11.2019 12:00:00 8,0 4,2 11 6 18 10 SSE 996,9 60 0 0,2
14.11.2019 11:00:00 7,2 4,3 11 6 26 14 SSE 997,4 50 0 0,0
14.11.2019 10:00:00 7,1 4,1 16 8 24 13 S 997,1 60 0 0,0
14.11.2019 09:00:00 6,0 3,8 16 9 29 15 SSE 997,4 38 0 0,0
14.11.2019 08:00:00 5,6 3,8 15 8 22 12 SE 996,9 60 0 0,2
14.11.2019 07:00:00 5,8 3,8 11 6 25 13 ENE 996,9 7 0 1,2
14.11.2019 06:00:00 6,8 3,8 22 12 43 23 N 996,5 13 0 0,2
14.11.2019 05:00:00 8,0 3,3 23 12 45 24 W 995,8 42 0 0,0
14.11.2019 04:00:00 8,4 3,2 16 8 35 19 W 996,3 59 0 0,0
14.11.2019 03:00:00 6,6 3,9 4 2 43 23 E 996,6 45 0 0,6
14.11.2019 02:00:00 7,9 4,7 37 20 59 32 W 997,1 6 0 0,6
14.11.2019 01:00:00 8,8 4,4 27 15 44 24 W 996,9 58 0 0,0
14.11.2019 00:00:00 8,0 5,8 8 4 18 10 SW 997,2 44 0 0,2
13.11.2019 23:00:00 7,6 5,6 9 5 46 25 W 997,8 24 0 1,6
13.11.2019 22:00:00 8,1 6,2 40 22 63 34 NW 998,3 4,0 0 3,0
13.11.2019 21:00:00 11,9 7,8 28 15 60 32 SSW 997,8 32 0 0,0
13.11.2019 20:00:00 11,4 7,7 24 13 50 27 SSW 1000,4 39 0 0,4
13.11.2019 19:00:00 11,0 6,1 25 13 46 25 SW 1002,5 19 0 0,0
13.11.2019 18:00:00 9,9 5,9 14 8 64 34 SW 1004,2 56 0 0,6
13.11.2019 17:00:00 10,0 5,8 21 12 42 23 WSW 1005,5 5 0 0,8
13.11.2019 16:00:00 10,1 6,6 6 3 16 8 S 1006,4 47 0 0,0
13.11.2019 15:00:00 10,6 6,0 8 4 29 15 WSW 1007,3 60 0 0,2
13.11.2019 14:00:00 10,3 5,9 18 10 27 15 SSW 1008,1 44 17 0,0
13.11.2019 13:00:00 10,0 5,6 16 9 29 15 SSW 1009,4 18 8 0,0
13.11.2019 12:00:00 10,5 4,2 16 8 24 13 SSW 1009,9 20 50 0,0
13.11.2019 11:00:00 9,8 4,0 7 4 11 6 SW 1010,3 19 48 0,0
13.11.2019 10:00:00 6,7 5,0 6 4 9 5 S 1009,8 12 6 0,0
13.11.2019 09:00:00 4,7 3,2 5 3 6 4 SSE 1009,6 20 23 0,0
13.11.2019 08:00:00 3,1 0,7 6 3 10 5 E 1008,9 28 0 0,2
13.11.2019 07:00:00 4,5 2,7 4 2 6 3 NNE 1008,8 36 0 0,0
13.11.2019 06:00:00 3,6 1,3 3 2 9 5 E 1008,2 20 0 0,0
13.11.2019 05:00:00 5,1 2,9 5 3 10 5 NE 1008,0 32 0 0,0
13.11.2019 04:00:00 4,6 2,6 7 4 10 5 N 1007,9 30 0 0,0
13.11.2019 03:00:00 4,4 2,4 4 2 12 6 N 1007,7 30 0 0,0
13.11.2019 02:00:00 4,9 2,6 10 5 16 9 NNE 1007,8 31 0 0,0
13.11.2019 01:00:00 6,2 3,2 14 8 20 11 NE 1007,6 40 0 0,0
13.11.2019 00:00:00 7,0 3,4 14 8 22 12 N 1007,5 50 0 0,0
12.11.2019 23:00:00 7,7 3,7 16 8 27 14 N 1007,6 51 0 0,0
12.11.2019 22:00:00 8,3 4,3 9 5 18 10 NW 1007,4 59 0 0,0
12.11.2019 21:00:00 9,1 5,6 15 8 23 13 NNW 1007,7 11 0 0,6
12.11.2019 20:00:00 9,3 6,4 9 5 24 13 WNW 1007,7 19 0 0,0
12.11.2019 19:00:00 9,4 5,9 14 8 24 13 NNW 1007,5 57 0 0,0
12.11.2019 18:00:00 9,2 6,8 13 7 23 12 WNW 1007,7 46 8 0,2
12.11.2019 17:00:00 10,3 6,8 16 9 33 18 NW 1007,9 53 30 0,2
12.11.2019 16:00:00 11,7 6,4 21 12 32 17 NW 1008,2 60 25 0,0
12.11.2019 15:00:00 11,7 7,4 18 10 28 15 NNW 1008,6 20 56 0,0
12.11.2019 14:00:00 11,9 7,0 15 8 29 15 NNW 1009,4 20 58 0,0
12.11.2019 13:00:00 11,8 8,1 11 6 19 11 WNW 1009,9 20 28 0,0
12.11.2019 12:00:00 11,7 7,2 9 5 17 9 NNW 1010,5 20 49 0,0
12.11.2019 11:00:00 11,3 6,2 8 5 14 8 NW 1010,8 42 44 0,2
12.11.2019 10:00:00 10,7 7,0 4 2 14 8 WNW 1011,0 20 32 0,0
12.11.2019 09:00:00 9,8 6,7 13 7 30 16 NW 1010,9 31 5 0,0
12.11.2019 08:00:00 8,4 5,9 9 5 27 14 NW 1010,8 40 0 0,0
12.11.2019 07:00:00 9,7 7,6 19 11 31 17 NW 1011,1 14 0 1,0
12.11.2019 06:00:00 9,1 6,9 18 10 46 25 N 1011,5 18 0 0,4
12.11.2019 05:00:00 9,6 6,1 29 16 54 29 NNW 1011,7 56 0 0,0
12.11.2019 04:00:00 7,8 6,3 5 3 25 13 SE 1012,3 50 0 0,6
12.11.2019 03:00:00 8,2 6,8 6 3 14 8 E 1012,4 35 0 0,0
12.11.2019 02:00:00 9,0 6,8 8 4 31 17 WSW 1013,2 19 0 0,2
12.11.2019 01:00:00 9,5 7,1 27 14 50 27 WNW 1013,9 10 0 1,0
12.11.2019 00:00:00 9,8 5,6 20 11 27 14 W 1014,0 44 0 0,0
11.11.2019 23:00:00 9,6 5,4 14 8 48 26 W 1014,4 58 0 0,0
11.11.2019 22:00:00 10,0 5,2 11 6 28 15 NW 1014,3 32 0 0,0
11.11.2019 21:00:00 10,5 4,4 24 13 42 23 NW 1014,3 38 0 0,0
11.11.2019 20:00:00 10,7 3,9 30 16 42 23 NW 1014,0 38 0 0,0
11.11.2019 19:00:00 10,6 4,5 24 13 42 23 NW 1013,9 20 0 0,0
11.11.2019 18:00:00 10,6 3,4 32 17 48 26 NW 1013,4 34 0 0,0
11.11.2019 17:00:00 10,5 3,5 32 17 50 27 NW 1012,9 41 1 0,0
11.11.2019 16:00:00 11,2 3,9 34 18 52 28 NW 1012,6 10 9 0,0
11.11.2019 15:00:00 11,2 3,9 36 19 55 30 NW 1012,0 20 4 0,0
11.11.2019 14:00:00 11,1 4,3 38 21 54 29 NNW 1011,6 20 25 0,0
11.11.2019 13:00:00 11,5 5,6 37 20 59 32 NNW 1011,3 19 27 0,0
11.11.2019 12:00:00 11,2 6,1 45 24 65 35 NNW 1010,9 19 0 0,0
11.11.2019 11:00:00 11,3 7,8 34 18 54 29 WNW 1010,0 20 0 2,4
11.11.2019 10:00:00 10,4 9,5 16 9 30 16 SSW 1010,3 2,8 0 0,6
11.11.2019 09:00:00 9,7 8,3 8 4 27 15 SSW 1011,0 8 0 0,2
11.11.2019 08:00:00 8,9 7,3 10 5 21 12 SSE 1011,0 12 0 0,2
11.11.2019 07:00:00 10,1 8,7 11 6 14 8 SSE 1011,1 33 0 0,0
11.11.2019 06:00:00 10,5 8,1 9 5 25 14 WSW 1012,0 10 0 0,2
11.11.2019 05:00:00 10,5 7,2 22 12 35 19 WSW 1012,3 50 0 0,0
11.11.2019 04:00:00 8,3 6,9 14 7 20 11 SSE 1012,4 26 0 0,0
11.11.2019 03:00:00 7,6 6,4 12 6 18 10 SSE 1013,9 20 0 0,0
11.11.2019 02:00:00 6,6 5,7 11 6 14 8 SSE 1014,1 14 0 0,0
11.11.2019 01:00:00 5,7 4,3 9 5 12 6 SE 1015,1 8 0 0,0
11.11.2019 00:00:00 5,4 3,7 8 5 10 5 SSE 1014,5 9 0 0,0
10.11.2019 23:00:00 5,6 3,8 6 3 11 6 SSE 1015,3 12 0 0,0
10.11.2019 22:00:00 6,7 4,9 6 3 9 5 SE 1014,5 20 0 0,0
10.11.2019 21:00:00 6,5 4,3 7 4 13 7 E 1014,3 14 0 0,0
10.11.2019 20:00:00 7,4 4,5 11 6 12 7 NE 1014,8 29 0 0,0
10.11.2019 19:00:00 9,1 4,1 5 3 10 6 NNE 1014,5 21 0 0,0
10.11.2019 18:00:00 9,4 3,8 4 2 9 5 NNW 1013,9 60 14 0,0
10.11.2019 17:00:00 10,9 4,4 4 2 15 8 N 1012,9 60 30 0,0
10.11.2019 16:00:00 12,0 4,5 12 7 20 11 N 1012,3 60 60 0,0
10.11.2019 15:00:00 12,2 4,4 12 6 22 12 NW 1011,5 60 60 0,0
10.11.2019 14:00:00 12,0 4,7 15 8 29 16 NW 1011,4 48 60 0,0
10.11.2019 13:00:00 12,2 4,9 17 9 29 16 NW 1011,0 47 57 0,0
10.11.2019 12:00:00 11,9 4,6 20 11 29 16 NW 1011,5 36 60 0,0
10.11.2019 11:00:00 11,3 4,7 19 11 26 14 NW 1011,4 20 58 0,0
10.11.2019 10:00:00 10,7 5,2 11 6 18 10 NNW 1011,1 20 37 0,0
10.11.2019 09:00:00 8,0 3,6 4 2 29 16 N 1010,7 46 0 0,0
10.11.2019 08:00:00 8,9 4,3 16 9 29 16 N 1009,9 42 0 0,0
10.11.2019 07:00:00 9,0 4,2 20 11 35 19 NNW 1009,8 44 0 0,0
10.11.2019 06:00:00 9,4 4,6 25 13 40 21 NNW 1009,5 42 0 0,0
10.11.2019 05:00:00 9,7 4,5 27 14 44 24 NNW 1009,6 44 0 0,0
10.11.2019 04:00:00 9,7 4,3 30 16 46 25 NNW 1009,6 48 0 0,0
10.11.2019 03:00:00 10,0 4,4 31 17 49 27 NW 1009,5 43 0 0,0
10.11.2019 02:00:00 9,7 3,6 36 20 55 30 NNW 1009,5 48 0 0,0
10.11.2019 01:00:00 10,0 4,4 36 19 60 32 NW 1009,5 37 0 0,0
10.11.2019 00:00:00 9,9 4,3 40 21 65 35 NW 1008,9 38 0 0,0
09.11.2019 23:00:00 9,5 4,7 42 23 61 33 NW 1008,5 43 0 0,0
09.11.2019 22:00:00 9,6 4,6 42 23 67 36 NW 1008,2 50 0 0,0
09.11.2019 21:00:00 9,9 5,3 34 18 54 29 NW 1007,7 51 0 0,0
09.11.2019 20:00:00 9,5 5,9 29 16 58 32 NW 1007,4 59 0 0,4
09.11.2019 19:00:00 10,1 6,2 30 16 59 32 NW 1006,4 51 0 0,0
09.11.2019 18:00:00 10,7 6,1 43 23 63 34 NW 1005,5 49 0 0,2
09.11.2019 17:00:00 9,7 8,5 27 15 72 39 NNW 1005,0 6 0 10,3
09.11.2019 16:00:00 11,0 9,7 33 18 58 31 SSE 1004,3 3,4 0 2,0

tt = Température de l'air
td = dewpoint
ff = Vitesse du vent
fx = gusts
dd = Direction du vent
ppp = reduced air pressure
vv = visibility
sd = Ensoleillement
rr = Quantités de précipitations

stations d'obs. à proximité